GFSSW_sfc_dewp_174.txt.gz
Dewpoint
54 54 55 56 56 56 56 57 57 57 57 58 59 60 60 61 59 51 45 45 52 73 71 41 49 48 44 44 42 42 38 34 35 39 43 45 50 54 56 58 59 61 63 65 65
54 54 54 54 55 56 56 57 57 57 57 58 59 59 60 60 48 36 58 69 70 72 39 40 34 28 27 31 47 42 34 34 37 41 43 45 47 53 58 59 60 61 64 65 63
54 54 54 53 54 55 56 56 56 57 57 58 58 59 60 58 42 33 70 68 71 66 37 36 31 26 26 29 49 38 32 36 39 40 42 45 47 49 55 58 61 61 63 64 63
54 54 54 53 54 54 55 55 56 56 57 57 58 59 60 45 28 31 71 70 70 39 34 34 32 28 27 31 39 32 33 34 37 40 41 44 45 51 55 58 61 62 64 63 63
54 54 54 54 54 55 55 55 55 56 56 57 58 59 46 36 27 31 72 67 42 30 32 36 31 28 27 31 37 32 29 34 37 39 42 45 48 52 55 59 61 62 62 62 62
54 55 55 54 54 55 54 55 55 55 56 57 59 59 44 28 23 28 30 32 32 29 31 34 31 27 27 41 41 37 32 33 36 40 41 45 48 54 56 59 61 62 61 61 61
54 54 54 54 54 54 54 54 54 55 56 58 60 51 35 30 24 20 23 23 27 28 31 33 32 29 26 32 42 42 36 38 39 39 41 43 44 52 57 59 61 61 61 61 61
54 54 54 54 54 54 53 53 54 55 56 59 59 47 33 27 27 24 20 19 24 27 31 32 30 30 27 45 43 47 47 41 37 39 39 38 43 51 56 57 59 60 61 61 61
54 54 54 54 53 53 52 52 54 55 58 60 49 40 27 39 28 21 21 16 21 23 27 30 26 27 35 42 45 52 48 45 41 37 41 38 41 49 52 54 57 59 60 61 61
54 54 54 53 53 52 51 53 53 54 52 46 39 33 35 25 21 20 17 17 18 23 26 29 28 30 25 30 38 43 43 42 42 35 39 34 38 45 49 50 54 56 58 58 59
54 54 53 53 52 51 47 39 34 41 34 28 23 23 17 26 18 15 14 15 17 23 26 29 28 27 25 34 43 40 37 38 37 32 36 43 40 43 45 44 48 52 56 56 57
54 53 53 53 51 50 46 37 29 26 25 29 32 26 24 21 16 14 11 13 16 22 25 27 27 27 26 29 38 38 37 33 33 30 35 36 41 42 42 42 44 47 52 54 55
53 53 53 52 50 45 35 26 30 25 22 19 20 28 25 23 18 18 14 12 15 22 24 27 27 27 25 27 31 30 27 27 26 26 28 30 37 42 42 42 42 43 47 49 52
53 53 52 51 42 35 32 32 28 25 21 14 11 13 18 22 20 20 15 13 15 21 24 27 27 25 25 26 29 26 29 27 23 21 22 27 27 40 42 40 42 43 44 45 50
53 53 52 51 39 34 33 30 27 27 17 10 7 14 13 18 18 18 16 12 14 20 24 27 26 25 25 24 28 25 26 26 23 22 24 26 31 33 40 40 39 40 44 45 48
52 52 52 39 35 34 29 27 27 22 18 11 7 11 12 14 16 16 17 13 14 19 23 26 26 24 24 26 26 25 26 24 22 21 19 22 29 34 34 39 39 40 40 45 47
52 51 49 40 33 31 31 30 19 17 20 13 12 12 11 11 13 16 16 16 12 19 23 24 24 24 24 25 25 24 25 25 24 19 19 23 29 37 35 36 38 39 41 42 48
51 51 43 36 34 31 30 27 21 15 18 10 12 17 14 11 11 14 15 15 12 16 19 21 20 23 24 25 25 24 24 24 26 19 18 29 27 31 32 32 36 40 40 42 42
50 37 32 31 31 31 27 22 18 17 17 16 8 15 17 10 11 12 16 14 14 15 22 23 21 22 22 24 24 25 26 24 22 23 19 26 28 33 31 31 32 36 40 42 44
40 34 30 28 27 27 23 23 17 12 16 17 16 12 17 15 12 13 14 16 14 13 21 25 23 21 21 22 22 23 25 22 23 28 29 25 30 27 36 31 30 32 40 44 46
38 29 26 25 24 25 22 18 17 18 15 17 19 16 13 16 13 13 13 14 15 14 21 22 22 23 22 22 20 19 22 24 20 22 24 29 29 35 39 36 34 33 34 45 45
32 26 27 32 22 21 22 20 22 13 13 15 17 19 16 15 17 14 12 15 14 15 18 22 20 22 20 21 19 19 22 22 24 33 26 28 24 24 35 31 35 37 44 40 45
29 26 26 31 25 20 22 18 16 14 14 12 14 20 22 21 23 17 13 11 15 14 22 24 23 22 21 18 20 18 17 20 22 25 32 25 26 29 32 35 39 38 38 48 47
31 28 36 28 25 20 19 16 13 14 13 12 13 19 23 23 24 23 15 11 14 12 43 31 19 27 17 24 19 20 13 17 19 25 27 22 34 30 31 34 39 39 47 48 56
35 38 40 36 33 31 19 21 14 11 12 12 14 16 21 24 23 22 19 15 13 31 33 22 28 25 19 17 15 13 11 14 23 24 25 26 29 33 42 39 41 43 51 52 56
41 39 35 28 30 29 29 27 25 15 10 11 13 15 20 25 25 23 23 24 25 20 21 16 31 30 19 14 14 11 11 13 17 21 24 23 27 34 40 38 38 46 51 54 57
43 40 35 31 27 25 23 26 25 25 11 9 10 17 20 24 28 27 22 25 23 27 28 26 25 33 27 17 14 16 14 15 19 21 21 25 32 33 35 38 42 50 51 55 56

GFSSW_sfc_dewp_180.txt.gz
Dewpoint
54 54 54 55 55 56 56 56 56 57 57 57 58 59 60 60 59 55 41 47 53 72 70 52 60 53 51 51 52 52 48 46 50 51 54 58 58 60 62 61 61 62 62 64 68
54 54 54 54 55 56 56 56 57 57 57 57 58 59 59 60 53 45 53 67 71 73 43 35 33 36 43 47 46 48 46 45 49 55 56 58 59 60 61 61 62 62 64 66 65
53 53 53 53 53 55 55 56 56 56 56 57 58 59 60 60 42 35 69 68 72 68 41 37 35 33 33 37 49 46 38 44 52 54 57 58 58 60 61 60 62 61 63 63 64
53 53 53 53 53 54 55 55 56 56 56 57 58 59 60 53 23 34 70 69 72 56 42 34 33 32 35 34 46 38 40 44 46 54 55 56 59 60 61 61 63 62 62 62 62
53 53 53 53 53 53 54 55 55 55 55 56 57 59 47 33 34 40 72 70 56 36 30 30 30 32 34 37 39 37 39 46 54 57 57 59 59 60 62 63 63 62 61 61 61
53 54 54 54 54 54 54 54 54 55 55 55 57 60 47 28 25 29 44 52 47 36 30 29 30 33 31 40 41 38 40 46 53 56 59 59 60 60 62 63 62 62 61 61 61
53 54 54 54 54 54 54 53 53 54 55 55 57 56 45 26 27 25 23 27 29 31 28 30 30 33 32 43 47 45 37 42 52 53 55 59 58 59 62 62 62 61 61 61 60
53 53 53 53 53 53 53 53 53 54 55 56 58 52 35 34 30 28 29 27 27 25 23 24 27 32 48 48 48 44 45 37 40 52 54 54 56 60 61 61 62 62 62 62 62
53 53 53 53 53 52 52 52 53 53 56 57 53 44 28 41 37 32 29 26 28 25 21 20 28 39 46 44 43 46 41 42 41 46 52 53 56 59 61 60 59 58 61 61 62
53 53 53 52 52 51 51 52 52 54 53 51 45 34 31 27 35 30 30 28 27 22 20 27 26 27 42 41 39 40 40 43 43 44 49 51 53 59 60 59 59 59 60 60 60
53 53 52 52 51 50 48 43 32 31 34 34 30 30 23 26 26 28 28 27 25 26 17 20 22 24 32 40 42 40 40 43 45 45 46 47 54 57 58 59 59 59 59 60 60
53 52 52 52 50 49 47 38 32 31 27 27 27 29 30 30 28 29 25 22 20 16 18 20 23 25 31 39 39 39 41 41 43 44 44 50 53 55 57 59 59 59 59 60 60
53 52 52 52 49 41 36 33 34 31 23 23 24 23 23 27 27 28 26 19 15 15 15 16 18 28 32 39 38 39 40 39 39 41 42 46 47 52 55 57 58 59 59 60 60
53 52 52 51 37 39 37 36 33 31 22 22 22 22 22 25 26 28 27 19 14 12 16 16 18 24 28 34 38 38 40 40 39 40 36 41 38 46 49 53 56 58 58 59 60
52 52 51 51 41 39 37 34 33 27 9 20 20 22 21 24 26 21 28 21 12 13 15 16 22 23 24 27 37 34 39 39 39 37 35 40 39 40 43 47 51 55 57 57 59
52 51 51 44 38 35 34 35 30 22 18 21 18 16 18 21 24 23 23 18 15 12 14 14 22 24 23 26 34 37 35 35 34 32 26 38 38 39 41 41 48 53 55 55 57
51 51 49 45 35 34 37 31 22 20 20 15 17 11 14 16 20 22 19 18 15 10 11 14 15 18 26 27 28 34 31 26 23 19 20 24 33 39 42 41 46 50 53 53 56
50 50 47 41 43 39 33 26 22 20 15 14 15 10 10 14 17 19 20 18 18 11 12 11 12 15 21 26 26 25 25 26 22 22 21 25 23 27 43 42 44 49 50 50 56
49 41 36 34 41 37 30 24 17 24 16 15 12 10 10 10 14 16 18 18 17 12 10 13 15 23 21 22 26 26 25 27 25 30 24 25 30 39 43 41 42 45 45 48 55
43 39 37 37 32 33 28 26 23 23 19 17 15 16 15 14 14 14 15 16 17 16 13 14 13 19 23 24 25 25 26 22 24 25 24 25 29 32 41 40 41 44 44 47 53
40 35 35 30 31 26 24 25 23 22 21 17 16 15 14 13 15 13 11 13 16 16 13 14 21 19 25 23 22 24 26 23 24 26 22 22 25 35 41 41 40 44 44 46 49
36 27 30 30 25 24 22 23 28 21 22 21 18 16 14 14 13 14 17 15 15 15 13 11 11 10 15 24 23 23 23 23 24 21 25 25 25 30 36 37 41 42 44 47 48
34 31 31 33 28 29 32 31 31 25 20 20 18 19 19 16 13 15 19 22 16 16 15 13 11 12 18 17 23 22 22 22 26 26 23 23 24 28 30 36 40 41 41 46 48
35 30 35 36 35 33 34 31 30 30 29 26 20 18 18 16 14 15 14 14 15 16 44 32 12 9 14 19 22 22 21 21 20 22 23 25 24 24 33 36 37 41 41 44 47
35 35 40 31 32 33 34 32 30 29 29 28 24 16 16 13 12 12 13 16 28 37 37 18 12 18 11 14 22 21 21 21 19 20 20 20 24 25 33 38 39 39 42 43 45
36 38 40 36 35 32 32 31 30 32 34 32 28 29 18 12 12 12 13 18 27 28 20 23 14 14 14 20 23 21 22 21 21 20 21 22 24 28 35 41 42 45 45 44 45
38 38 38 34 32 34 35 35 35 36 36 34 33 30 29 26 12 12 13 19 28 28 26 20 16 17 13 14 18 21 21 21 19 19 19 18 21 30 36 38 41 44 48 47 49

GFSSW_sfc_dewp_186.txt.gz
Dewpoint
54 54 54 54 54 54 54 55 55 56 56 56 58 58 59 59 59 56 36 45 51 70 72 68 66 60 59 57 60 56 46 50 52 54 56 60 59 61 61 61 62 63 62 66 68
53 53 53 53 54 55 55 55 55 55 56 57 57 58 58 59 54 40 57 71 72 73 57 55 48 55 51 49 52 49 45 45 53 55 57 59 59 60 60 61 62 64 66 67 67
53 53 53 53 53 54 55 55 55 55 56 56 57 58 58 59 33 28 72 73 73 71 38 35 34 43 39 43 46 47 43 45 55 58 59 59 60 61 60 59 61 62 65 66 66
53 53 53 52 52 53 54 54 55 54 54 55 56 57 59 52 23 39 72 73 73 58 39 33 31 30 34 34 44 42 47 55 58 59 59 59 61 60 61 61 63 63 65 64 64
53 53 53 52 52 52 52 53 54 54 54 54 55 57 46 18 23 56 72 70 55 39 31 30 31 32 27 31 39 46 53 56 58 59 60 61 61 61 61 63 64 63 63 64 63
53 53 53 53 53 53 54 54 53 54 54 54 55 57 42 15 18 26 23 28 37 33 33 31 31 30 31 39 42 53 55 57 58 59 61 60 61 60 60 63 63 62 62 62 63
52 53 54 52 52 53 53 53 53 54 54 55 56 54 40 17 20 25 25 21 22 25 21 28 31 29 30 43 48 50 55 57 58 59 60 59 57 60 61 61 61 61 62 62 63
52 52 53 53 52 52 52 52 53 54 55 55 56 52 15 21 36 34 28 26 26 26 25 25 26 30 43 47 44 45 46 52 54 58 59 52 49 61 62 60 60 60 61 61 61
53 52 52 52 52 52 51 52 54 54 55 57 49 32 12 36 33 34 27 21 25 26 26 23 27 33 44 41 39 42 41 39 48 55 57 56 54 61 62 61 60 60 60 61 61
53 52 52 52 52 50 51 52 53 54 54 54 47 24 17 18 28 32 31 25 21 21 25 22 27 30 42 37 37 37 38 41 42 49 55 55 54 61 61 61 60 60 60 61 60
52 52 52 52 50 51 46 32 29 27 29 28 26 23 26 29 30 28 29 27 24 22 18 23 19 20 23 36 37 39 39 39 43 47 52 53 55 60 61 60 60 61 61 61 61
52 52 52 52 50 49 39 31 31 30 28 29 29 28 28 30 27 26 29 23 22 19 18 19 16 20 27 38 39 40 40 40 42 45 46 51 54 59 60 60 60 60 59 61 62
52 52 51 50 50 39 38 32 33 34 28 26 26 25 25 28 27 25 26 23 22 18 17 16 16 21 23 29 36 39 37 38 38 43 49 51 49 57 59 60 59 60 59 60 61
51 51 51 50 35 39 23 33 34 33 17 12 19 22 25 26 23 26 27 22 19 18 17 16 18 22 25 27 33 32 38 39 39 38 36 44 36 51 56 58 59 59 59 59 60
51 51 51 49 37 35 26 35 36 25 -8 -1 17 23 23 21 23 23 27 23 19 18 16 16 16 21 25 27 36 32 39 39 40 39 37 41 38 39 54 55 57 59 59 59 60
51 50 50 43 40 40 39 37 29 19 11 13 21 20 22 23 22 27 25 24 22 15 17 15 19 18 17 27 36 37 38 33 31 35 33 36 36 34 50 52 55 57 59 60 60
50 49 48 45 31 40 38 29 22 16 16 11 12 13 10 20 20 23 24 19 18 17 13 15 14 17 23 22 30 34 33 30 28 29 30 33 36 34 41 50 53 55 57 59 60
49 49 44 41 41 39 32 24 18 17 20 18 16 15 12 16 19 19 22 19 18 16 13 10 10 13 17 21 26 31 31 30 27 25 23 35 35 33 41 45 51 54 56 58 59
48 39 36 36 39 37 25 18 21 21 20 19 16 14 14 14 14 18 19 16 19 12 12 11 9 15 20 24 27 29 32 32 28 27 27 27 29 30 45 45 50 52 54 57 58
39 36 33 36 38 31 23 17 22 24 20 19 17 16 14 14 14 13 18 19 19 13 13 11 7 13 14 23 27 27 28 26 27 28 26 26 26 27 39 43 46 49 53 56 58
35 25 25 34 30 27 20 21 25 24 26 22 20 18 16 15 17 13 13 17 16 19 12 14 13 9 19 15 19 25 24 25 26 27 26 25 26 30 38 44 45 47 51 55 57
32 16 23 33 25 26 23 24 32 27 28 26 22 18 18 18 16 15 14 15 16 16 15 21 15 15 10 22 19 22 23 24 25 23 25 25 25 30 37 44 45 46 51 53 55
31 30 35 34 27 28 32 33 32 30 29 28 27 24 22 21 18 18 18 17 15 14 15 21 12 9 23 11 23 18 24 24 25 26 25 24 25 29 42 44 45 45 48 52 53
33 28 34 34 32 29 31 30 32 30 29 29 28 26 25 21 19 18 17 16 17 15 40 39 14 12 9 13 21 23 23 25 24 24 24 25 26 29 37 43 45 45 47 50 52
33 32 35 27 28 30 29 31 30 29 35 36 30 27 26 23 23 17 18 15 15 28 22 27 15 13 13 17 21 20 23 25 23 24 22 24 25 26 31 33 44 45 47 49 50
32 31 32 30 30 29 30 28 32 32 33 32 33 33 34 30 28 27 28 23 20 16 12 13 21 14 12 13 12 14 21 24 23 25 25 24 26 28 34 36 37 40 45 48 49
36 35 34 29 29 30 30 32 32 31 34 35 34 33 33 33 31 31 32 32 32 31 20 14 24 18 14 13 15 12 12 19 25 25 24 22 25 31 31 36 39 41 44 46 48

GFSSW_sfc_dewp_192.txt.gz
Dewpoint
54 54 54 54 54 54 54 54 55 55 55 56 57 58 59 59 58 52 34 49 59 75 73 58 58 56 57 54 54 54 45 42 43 44 52 57 56 59 60 59 60 60 60 62 63
54 54 54 53 54 55 55 55 55 55 55 56 57 58 59 59 44 31 63 70 73 74 55 53 48 53 50 46 47 47 40 40 46 49 53 56 55 57 58 59 60 60 61 62 64
53 53 53 53 52 54 55 55 55 55 55 55 56 58 59 57 34 30 72 73 73 70 45 44 36 44 39 38 43 43 39 44 49 50 51 55 56 57 57 57 60 61 62 61 63
53 53 52 52 52 54 54 55 55 55 55 55 56 57 59 44 27 34 72 73 73 60 42 32 35 34 32 33 40 41 47 41 48 53 53 54 57 56 56 59 60 62 62 60 61
52 52 52 52 53 53 54 54 54 55 55 55 55 57 44 21 20 48 70 71 59 54 37 29 29 29 29 36 43 42 49 51 53 55 54 56 54 57 59 60 61 63 62 60 61
52 52 52 53 53 53 53 54 54 54 55 56 56 57 33 16 18 33 28 43 35 30 25 25 28 27 27 43 43 50 51 54 55 57 57 53 57 57 60 61 62 63 61 61 61
51 53 53 53 53 53 53 54 54 55 57 58 56 47 21 16 16 23 23 21 21 19 18 20 25 25 26 45 53 52 51 54 55 56 55 55 55 52 61 62 62 62 62 61 62
52 52 53 53 53 53 53 53 53 55 59 56 57 39 12 14 19 19 18 16 18 18 16 19 22 23 25 49 49 47 45 43 53 55 55 52 48 56 61 62 63 62 61 61 61
52 53 52 52 52 52 52 51 52 55 57 57 44 28 11 32 17 17 15 14 13 18 20 21 24 23 39 43 40 43 34 37 45 53 53 53 48 56 60 61 61 61 61 61 62
53 53 52 52 52 51 51 52 53 53 52 49 40 22 8 15 21 26 28 23 15 14 17 18 20 26 34 38 34 34 32 29 36 48 52 50 48 56 58 58 61 61 61 62 62
52 52 52 52 51 51 41 25 23 26 25 23 20 6 20 24 24 24 28 27 21 16 13 17 17 23 28 37 35 33 36 34 35 40 48 48 47 53 57 55 56 60 61 61 61
52 52 52 52 50 50 32 24 27 29 26 22 21 24 23 24 21 18 25 24 21 12 10 12 15 21 27 31 34 34 34 35 36 41 45 42 45 48 56 55 53 55 58 59 60
52 51 51 51 51 38 28 26 31 32 28 16 20 14 12 20 18 16 21 21 20 12 5 8 16 17 25 28 33 32 33 32 35 42 45 42 41 46 54 55 51 52 55 58 59
51 51 51 50 40 29 25 30 31 34 18 2 11 16 16 18 11 15 19 20 18 13 7 6 13 14 23 27 30 30 31 30 35 38 33 43 32 46 51 54 52 51 50 53 57
51 51 51 49 34 23 28 31 32 32 -7 2 9 19 21 12 5 3 16 18 19 16 10 10 9 14 21 26 30 29 30 32 33 35 35 36 35 34 47 52 52 52 52 51 54
51 50 50 41 37 31 34 32 33 18 -1 0 14 15 15 18 10 19 16 17 19 17 14 9 13 14 16 24 28 30 31 32 33 32 32 33 35 31 39 46 51 52 54 52 52
51 50 45 40 32 35 34 27 12 4 2 2 12 15 13 11 15 14 20 18 18 20 18 13 11 14 15 19 27 29 30 29 29 29 31 35 34 36 37 42 46 52 52 54 52
50 49 42 36 35 36 31 10 9 2 5 17 14 12 12 14 14 13 16 16 18 15 11 10 7 15 16 18 26 28 28 27 31 31 30 37 32 34 37 37 39 47 51 54 53
49 32 33 35 36 37 25 3 -2 6 20 17 16 11 7 14 16 18 15 16 16 15 15 12 8 12 14 16 22 28 29 27 27 33 30 28 32 34 34 39 38 45 50 52 53
37 28 28 35 36 33 19 13 5 20 21 18 15 12 11 14 16 18 16 16 16 15 14 17 15 9 12 15 18 26 29 25 25 32 30 28 31 29 37 36 43 48 51 52 54
33 23 29 36 34 25 13 10 11 13 19 18 16 15 14 15 18 17 18 17 16 17 16 13 14 13 14 16 15 18 27 28 24 30 28 27 27 34 35 36 44 50 51 52 53
32 19 32 36 23 22 15 21 28 15 17 17 18 13 15 17 18 19 18 19 15 16 18 17 13 13 10 13 15 18 27 29 25 34 30 30 25 30 33 34 45 49 49 52 50
29 27 34 34 19 20 26 22 25 22 20 16 15 17 16 19 19 19 18 17 16 20 23 21 16 13 14 7 14 17 22 27 28 31 35 29 28 31 36 44 46 47 47 53 52
30 22 28 32 31 26 25 22 22 26 25 24 22 21 18 14 16 18 18 14 19 23 40 36 20 19 8 15 11 17 18 23 27 29 31 29 30 32 32 38 47 47 46 52 54
32 30 36 22 25 26 28 27 22 21 24 27 24 22 24 21 16 16 16 24 21 34 32 28 26 21 15 10 10 14 15 18 28 29 29 31 31 33 35 36 46 48 46 51 55
30 31 32 26 26 26 28 24 24 30 25 22 25 27 28 27 23 27 28 26 25 30 31 29 28 27 21 15 13 10 12 16 23 28 29 31 31 33 36 35 45 50 50 51 54
38 37 32 27 23 25 22 25 28 28 26 29 30 30 27 25 29 32 31 30 29 28 28 30 28 31 26 20 16 15 14 14 19 27 29 29 34 34 34 37 39 42 49 51 52

GFSSW_sfc_dewp_195.txt.gz
Dewpoint
54 54 54 54 55 55 55 55 55 56 56 57 58 58 59 59 58 52 41 52 60 75 74 56 53 52 52 52 50 50 46 40 39 50 48 48 50 54 57 57 57 58 59 62 62
54 53 53 53 55 55 55 56 56 56 56 57 57 58 59 59 46 32 58 71 73 75 58 49 45 47 49 44 44 45 39 37 39 43 45 47 50 54 55 57 58 58 60 61 60
53 53 53 53 54 55 55 55 56 56 56 56 57 58 59 57 37 36 71 71 73 72 49 46 37 36 41 37 41 40 38 40 42 44 46 47 49 52 52 55 57 59 59 60 61
52 52 52 53 53 54 55 55 55 56 56 56 56 58 58 42 30 42 73 74 74 61 42 34 32 36 33 34 37 39 35 39 42 43 44 47 49 50 53 54 57 60 60 60 59
52 53 53 53 54 54 54 54 55 55 56 56 57 57 43 29 26 53 74 72 59 54 45 31 30 32 29 36 36 36 38 41 44 46 45 47 47 50 54 57 58 60 60 59 58
53 54 54 54 54 54 54 55 55 55 55 56 59 57 35 22 22 40 40 52 47 47 33 29 26 28 29 34 37 37 40 42 45 48 50 46 49 52 57 57 59 60 59 58 57
53 54 53 53 54 53 53 54 54 55 55 58 59 45 20 19 18 21 25 29 33 29 26 25 25 25 28 30 41 41 39 42 44 49 49 50 50 50 57 57 59 59 59 58 59
53 53 53 53 53 53 53 53 54 55 59 57 57 37 17 16 18 17 21 21 22 22 22 23 23 23 25 31 44 41 40 36 42 46 48 49 52 53 57 58 59 59 59 58 60
53 53 53 53 53 52 52 52 53 55 58 56 47 33 16 32 13 15 16 15 18 19 22 18 20 23 25 30 38 39 36 47 55 43 50 48 52 54 56 58 60 61 59 58 60
52 52 52 52 52 51 52 52 53 53 54 45 35 21 12 11 14 15 16 13 13 17 19 20 19 20 24 28 34 36 32 38 31 43 43 45 46 55 56 57 59 60 59 59 59
52 52 52 52 51 51 46 19 22 29 25 17 17 7 12 16 21 21 22 22 14 13 15 19 17 18 23 29 33 44 39 34 27 37 39 40 42 53 56 55 56 59 60 59 59
52 52 52 52 51 51 36 21 26 26 22 15 10 11 17 17 18 17 20 21 17 12 12 17 17 20 21 26 29 47 36 34 35 35 36 35 38 42 55 54 54 55 58 59 59
52 52 52 51 51 39 24 22 25 28 25 12 5 2 1 5 10 13 18 21 15 13 9 14 18 17 19 23 26 29 30 31 34 36 38 35 35 36 49 54 52 53 55 57 58
52 52 51 50 42 24 22 22 22 30 18 1 7 7 7 -1 4 8 15 17 16 14 11 10 14 16 17 19 25 26 29 28 27 31 31 38 33 37 43 52 52 50 51 54 57
52 52 51 50 36 23 24 23 23 31 -1 -1 4 14 7 2 -1 3 8 17 15 13 14 10 9 14 18 18 23 26 28 28 29 31 32 37 31 29 44 49 51 48 49 51 54
52 51 51 37 34 28 25 24 24 17 1 -2 5 10 7 11 6 3 -0 14 17 16 14 10 9 10 14 16 20 26 27 29 29 29 27 29 28 28 39 45 50 50 49 49 50
51 50 47 35 28 27 26 22 12 6 1 -3 -1 7 9 8 9 5 14 7 13 17 17 13 7 7 11 15 18 24 25 26 27 26 25 30 28 30 46 38 44 50 50 50 48
50 49 44 29 30 28 27 17 11 4 3 11 8 5 5 7 10 10 7 13 10 13 11 12 8 6 11 15 19 22 25 24 30 25 25 35 31 29 48 36 40 47 50 51 48
49 33 26 31 29 29 24 10 7 5 12 14 13 11 6 -4 11 11 13 9 11 12 17 12 12 5 9 15 17 21 26 25 25 29 32 46 36 30 34 33 33 36 50 51 50
41 31 23 28 28 27 21 19 9 7 15 16 12 7 4 -2 8 12 16 13 10 12 16 16 14 8 5 13 15 17 26 24 25 30 37 35 38 24 34 33 38 39 47 52 52
41 24 28 26 25 23 16 13 9 4 11 11 10 9 14 12 12 14 16 14 11 16 15 13 13 14 9 13 14 16 19 26 23 23 29 34 39 31 36 35 36 42 48 52 52
31 24 29 27 21 18 14 16 24 14 11 10 11 14 15 14 16 16 17 19 15 18 18 18 10 15 10 11 13 15 20 23 25 32 26 30 31 27 33 34 38 44 51 51 50
30 27 28 26 19 15 16 18 16 17 16 13 9 10 14 13 19 19 19 19 16 20 27 25 16 14 16 7 13 14 17 21 27 27 31 31 33 34 34 36 41 47 49 50 50
31 24 26 26 24 22 20 19 17 19 18 19 18 16 14 15 19 20 19 17 15 19 46 37 25 20 11 17 12 16 15 18 21 27 28 28 41 44 35 41 43 47 47 49 51
32 29 29 22 25 22 21 20 17 16 18 18 20 19 18 17 17 14 13 16 22 34 30 27 28 24 17 12 10 10 11 14 19 27 26 30 40 46 37 43 44 45 47 50 49
32 32 31 23 24 22 23 19 18 18 21 19 19 21 28 19 20 19 21 24 28 29 30 29 29 28 20 14 11 9 9 12 17 21 26 28 32 31 41 42 45 44 46 50 51
36 34 30 31 21 20 18 24 22 25 22 21 24 25 25 26 24 25 26 29 29 30 28 30 29 29 24 18 15 14 11 12 16 21 24 27 33 38 38 38 45 45 44 49 50

GFSSW_sfc_dewp_198.txt.gz
Dewpoint
54 54 54 55 56 56 56 56 57 57 57 57 58 58 59 59 56 38 45 53 60 75 74 57 59 53 51 50 50 47 57 49 46 45 49 54 55 57 57 56 59 60 59 60 63
53 53 54 55 55 55 56 56 57 57 57 57 57 58 59 59 37 31 60 73 72 74 55 52 47 41 45 47 42 42 50 45 43 48 48 49 48 51 54 56 56 59 60 61 63
53 54 54 53 54 55 55 55 56 56 57 57 57 58 59 55 33 33 69 73 73 72 55 46 44 36 37 37 36 37 41 41 43 45 46 46 46 49 52 53 57 59 61 59 61
52 53 53 53 53 54 55 55 56 56 56 57 57 59 59 40 30 43 71 72 74 60 54 40 34 32 32 32 37 37 37 40 39 41 43 48 45 53 58 60 58 59 59 57 59
53 53 53 54 54 54 54 55 55 55 56 56 57 59 39 28 28 47 73 72 58 54 51 41 31 30 29 30 36 36 37 38 40 43 43 44 47 53 54 54 58 59 59 58 56
53 54 54 54 54 54 54 54 55 55 56 57 57 59 32 18 33 43 41 49 44 45 41 36 29 27 27 29 40 43 40 39 42 42 44 42 44 47 50 53 57 59 59 59 57
53 54 54 54 54 54 53 54 54 55 56 57 59 50 19 18 25 40 36 42 41 40 35 33 26 25 26 29 43 42 41 36 41 43 43 47 47 50 51 54 56 58 59 58 56
54 54 53 53 53 53 53 53 54 54 57 59 57 43 14 12 18 19 22 26 28 31 28 28 27 25 25 27 31 42 43 37 46 46 49 51 57 54 51 54 55 57 57 58 56
53 53 53 53 53 52 52 52 53 54 56 59 45 34 14 34 15 18 21 21 24 25 26 24 24 23 23 25 26 32 37 42 45 43 45 49 53 49 52 53 55 56 57 58 59
53 53 53 52 52 52 51 52 52 52 51 45 39 27 25 13 11 12 13 17 20 22 24 24 23 22 23 24 23 36 42 42 40 40 42 46 49 48 53 54 55 56 57 58 59
53 53 52 52 51 51 46 29 23 31 31 22 18 15 4 10 16 17 15 12 13 15 18 23 20 21 23 24 27 38 44 48 44 43 43 37 53 53 53 52 55 57 56 58 59
53 52 52 52 51 50 43 18 21 22 19 16 10 7 9 15 13 15 17 18 18 14 14 17 19 22 23 22 28 40 46 42 48 41 36 32 45 53 54 53 53 55 57 56 58
52 52 52 51 50 41 22 19 18 19 20 14 7 1 -4 2 11 12 15 15 17 16 9 14 19 21 20 20 21 23 36 36 35 44 36 34 32 51 54 53 54 54 56 56 57
52 52 51 50 42 30 23 22 18 20 20 5 -2 3 -6 -5 -6 -1 5 13 16 14 11 10 16 19 19 18 19 20 31 31 34 31 29 37 32 38 51 52 52 54 54 55 57
52 51 51 50 36 29 24 21 18 22 7 -4 -3 11 -2 -2 -6 -6 -2 7 14 16 13 10 9 15 19 18 17 20 23 26 26 25 24 30 33 37 41 50 50 50 54 54 56
52 51 51 37 35 32 24 21 19 15 8 -4 -0 4 4 2 -3 -6 -1 1 13 13 13 11 11 11 15 17 16 19 21 25 26 28 24 28 27 30 37 44 50 49 51 54 55
51 50 48 39 28 27 23 21 10 5 6 1 -6 -3 6 2 5 -4 1 4 5 15 15 12 9 10 12 14 17 18 18 23 25 29 22 26 25 37 45 49 51 50 48 50 54
51 49 44 35 28 25 24 18 13 9 8 5 3 1 5 7 7 6 5 3 2 10 12 12 10 9 10 13 16 17 16 23 27 24 22 36 30 37 48 53 51 50 48 48 49
50 36 30 30 29 25 21 15 12 12 5 12 13 7 4 2 -0 9 9 0 6 5 16 12 11 11 9 10 12 16 18 19 21 24 26 42 38 43 45 44 40 43 49 48 48
42 38 35 27 25 24 19 20 14 10 5 8 12 12 7 2 -2 5 11 11 2 7 9 14 16 9 9 8 10 14 16 18 23 27 28 41 44 39 45 42 37 41 50 52 51
41 32 27 26 23 21 17 16 13 11 6 8 11 12 10 7 5 6 7 12 12 7 11 8 12 15 12 11 10 13 17 18 19 24 25 30 37 43 44 45 37 38 51 53 52
36 28 28 29 22 20 17 14 24 14 12 10 10 9 12 12 15 14 12 18 17 17 17 18 11 17 14 11 8 12 18 18 20 32 27 30 35 46 46 43 39 38 53 54 52
35 30 28 27 19 18 20 20 16 16 15 13 10 10 9 13 17 16 17 17 19 18 29 28 20 17 18 12 9 10 14 18 19 26 32 28 34 48 46 41 37 43 52 55 54
36 26 26 26 22 20 22 23 25 17 14 14 16 16 13 10 13 16 19 17 17 17 46 33 26 26 14 18 12 15 11 15 18 23 28 24 33 40 45 47 41 50 54 55 55
37 28 29 24 24 25 21 18 16 16 16 17 16 15 16 16 15 14 16 17 15 36 27 25 27 27 23 19 14 9 10 11 19 22 23 27 27 38 47 53 47 52 54 54 55
35 32 31 27 25 23 24 16 14 17 20 19 21 15 21 18 21 23 26 22 23 27 29 28 29 29 25 22 18 14 9 11 12 16 21 25 37 45 51 51 52 52 52 54 54
38 35 33 31 25 22 20 24 23 21 22 20 21 23 24 26 29 29 27 28 28 30 31 30 30 31 27 25 23 19 15 12 14 18 18 23 42 47 49 53 53 49 51 54 52

GFSSW_sfc_dewp_201.txt.gz
Dewpoint
53 53 54 55 56 56 56 56 56 56 57 58 58 58 59 59 58 47 40 54 61 73 73 59 57 57 59 56 54 61 56 53 53 48 54 59 55 56 60 59 59 59 60 61 65
53 53 54 54 55 56 56 56 56 57 57 57 58 58 59 59 48 31 54 71 73 74 58 53 54 51 49 43 49 52 48 49 53 50 55 56 55 55 58 58 58 59 61 63 64
53 53 54 53 53 55 55 56 56 56 57 57 57 58 59 59 36 34 69 73 73 73 55 51 54 40 39 36 39 43 46 51 49 49 55 53 55 55 56 56 58 59 60 62 63
52 52 53 53 53 54 55 55 56 56 56 57 57 59 59 49 28 46 70 71 73 66 54 52 47 37 31 34 43 38 47 47 50 48 48 51 54 55 57 58 60 60 61 62 59
52 53 52 53 54 54 55 55 55 55 56 56 58 59 47 30 27 57 72 71 64 56 52 49 43 33 26 27 39 40 45 43 47 48 47 53 54 56 58 59 61 60 60 61 59
53 54 54 54 54 54 54 54 54 55 55 57 58 60 46 17 22 54 57 59 49 48 45 41 39 29 26 26 40 42 41 43 43 41 43 49 53 52 58 59 59 58 58 59 58
54 54 54 54 54 54 54 54 54 54 55 56 59 54 32 16 19 41 42 44 43 40 38 40 34 26 26 25 34 41 42 45 44 43 48 52 52 53 57 58 58 57 57 57 59
54 54 54 54 53 53 53 53 53 54 55 56 59 50 30 13 13 13 14 24 41 40 38 36 28 26 25 25 25 38 46 43 47 46 49 52 52 53 54 57 57 57 58 57 57
53 53 53 53 53 52 52 52 53 55 56 58 50 45 27 34 20 12 15 19 23 25 26 25 26 24 24 22 22 33 41 44 47 45 49 52 53 50 54 55 56 57 58 56 56
53 53 53 52 52 52 51 52 52 54 52 43 43 33 31 22 16 15 16 21 21 22 23 26 25 23 23 23 21 41 45 48 48 45 46 48 50 52 54 55 55 57 57 56 56
53 53 52 52 52 51 48 37 22 33 22 28 26 23 17 17 16 13 15 14 14 17 20 23 22 22 22 23 24 37 45 47 44 41 45 44 49 45 53 52 55 56 57 56 57
53 53 52 52 51 50 47 18 18 18 17 18 18 14 12 10 9 10 15 16 13 11 15 14 16 21 23 23 23 24 43 46 44 43 49 45 45 45 52 52 54 55 56 57 58
53 52 52 51 49 45 31 22 19 17 20 19 16 12 9 2 1 6 14 14 16 16 12 12 14 18 21 21 20 21 36 42 43 42 47 44 41 51 53 52 54 55 57 58 58
53 52 52 50 42 33 30 23 20 18 21 16 6 8 6 -1 -5 2 11 14 14 13 16 16 14 15 17 20 20 19 34 32 32 39 42 44 40 51 52 52 54 55 56 57 58
52 52 52 51 41 36 33 23 20 20 16 -2 1 6 2 -2 0 -6 0 4 5 9 14 15 14 10 12 18 20 19 20 27 31 33 34 33 34 48 52 51 52 53 55 56 58
52 51 51 41 38 38 30 23 22 17 12 4 1 3 4 -2 -5 -3 -6 -3 0 3 10 14 15 10 9 13 18 20 19 18 19 22 27 29 27 33 51 52 53 53 54 55 56
51 50 49 43 33 32 31 25 17 10 10 4 5 9 2 6 3 -1 -2 -5 -4 1 7 13 13 13 11 9 12 18 16 16 18 21 28 30 28 42 48 54 57 59 54 55 55
51 50 47 38 38 35 27 23 18 12 9 7 9 12 10 -2 4 4 0 -3 -1 -2 12 14 11 12 11 10 11 14 15 16 18 23 26 35 38 45 49 51 53 53 51 54 55
50 40 36 34 37 32 26 19 17 17 11 9 6 12 12 6 5 7 5 -1 -2 1 -0 10 13 15 12 10 11 13 15 18 16 17 22 40 43 46 48 48 50 50 51 52 54
44 38 39 37 31 28 25 24 18 17 15 12 7 13 13 13 7 3 5 11 6 3 3 2 7 14 12 12 10 11 15 15 15 14 19 39 41 38 43 44 48 50 50 50 54
43 37 33 26 27 28 20 19 17 15 12 13 9 10 11 11 10 10 12 14 18 17 14 2 4 6 12 14 10 9 10 11 16 20 20 34 39 43 43 44 46 46 46 49 51
37 33 30 31 29 27 20 19 26 14 15 13 14 11 10 10 11 15 16 17 19 19 26 26 21 8 8 10 13 10 12 12 14 21 22 24 36 42 42 45 47 45 48 49 48
37 36 35 29 23 21 21 21 22 22 19 18 15 14 13 11 12 17 16 15 19 20 26 23 26 19 16 12 11 14 8 14 16 23 20 27 29 44 45 48 49 47 49 54 48
37 33 33 32 29 23 21 20 21 21 19 16 16 17 18 17 15 16 12 12 16 17 48 36 22 25 22 20 21 22 10 10 15 16 18 19 37 40 42 43 45 52 52 51 48
40 34 34 28 27 25 25 24 18 17 22 22 21 15 16 18 18 17 23 25 26 37 33 26 26 28 26 25 24 22 18 8 13 17 16 19 37 39 42 47 52 56 54 53 50
36 35 34 32 30 27 27 22 17 12 17 21 30 28 23 26 27 26 27 27 29 28 30 30 30 32 31 28 25 23 23 22 8 11 16 19 40 48 48 46 49 59 59 56 52
41 40 36 34 29 27 25 28 24 28 25 25 24 25 23 27 27 25 26 27 25 27 28 30 30 30 29 31 29 26 25 24 19 12 16 18 40 49 50 51 54 58 59 58 54

GFSSW_sfc_dewp_204.txt.gz
Dewpoint
53 53 53 54 55 56 56 56 57 57 57 58 58 58 59 59 59 52 39 52 56 73 72 66 62 59 63 63 65 62 56 52 50 53 58 62 58 59 60 60 59 60 61 62 66
53 53 53 54 55 55 56 56 56 57 57 57 58 58 59 60 51 38 50 72 74 73 63 60 56 56 55 57 58 58 51 48 52 54 59 61 58 57 58 58 59 58 60 64 65
52 52 53 53 53 55 55 56 56 56 56 57 57 58 59 59 36 31 71 74 74 73 59 52 52 53 47 41 52 50 45 49 49 53 57 58 56 58 58 57 59 58 60 64 64
52 52 53 53 53 54 55 55 55 56 56 56 57 58 60 52 22 46 71 73 74 66 59 53 51 46 36 29 46 41 44 47 48 56 55 55 56 57 58 59 60 59 62 63 63
52 52 53 53 53 53 54 54 55 55 55 56 57 59 47 28 25 48 71 72 65 59 55 50 48 43 27 25 31 43 46 47 48 52 54 55 55 57 58 59 59 60 62 63 62
52 53 54 54 54 54 54 54 54 54 55 55 57 60 46 8 15 51 58 59 55 53 46 46 41 36 26 25 29 41 43 45 45 52 53 53 57 58 59 60 59 61 62 61 60
53 53 54 54 54 54 54 54 54 54 54 55 56 54 44 9 20 18 36 48 47 48 44 42 40 27 26 24 26 34 42 46 45 50 52 53 54 57 60 59 59 59 61 59 59
53 53 54 54 53 53 53 53 53 54 55 56 57 52 32 24 23 16 13 13 18 40 39 38 37 28 28 26 24 28 46 42 48 48 51 49 51 57 60 58 58 59 59 59 59
54 54 53 53 53 52 52 52 54 55 55 58 49 46 24 38 25 17 9 14 19 29 32 28 28 25 24 22 23 37 39 39 48 51 49 52 52 54 58 57 56 57 57 57 59
54 54 53 53 52 52 51 52 53 54 51 50 44 34 26 18 22 19 13 13 19 21 22 28 25 23 23 22 20 30 45 46 42 47 48 46 48 50 57 57 56 56 57 56 58
53 53 53 52 52 51 49 34 17 16 17 20 34 31 25 21 19 15 14 16 18 21 19 22 20 20 22 23 23 25 43 45 45 46 43 41 45 50 51 57 57 57 57 57 56
53 52 52 52 51 50 47 17 17 16 14 16 17 18 20 17 12 15 12 14 15 14 15 19 18 21 24 24 23 32 45 45 45 44 46 46 45 46 49 54 57 57 57 56 55
53 52 52 51 50 40 34 27 22 23 18 19 18 16 15 13 9 5 7 17 14 11 12 11 14 16 17 19 22 24 42 43 41 44 46 49 43 47 50 53 55 57 58 57 56
53 52 52 50 36 39 34 33 31 20 18 17 16 15 10 1 -0 -2 5 12 17 14 16 12 13 14 14 16 19 19 32 39 42 39 38 44 37 48 49 52 54 55 57 57 57
53 52 52 50 42 39 35 36 28 21 -6 9 6 10 7 -0 -1 -2 -0 6 11 11 13 14 16 14 14 14 16 19 22 32 39 40 38 38 38 39 50 50 52 54 56 57 57
52 52 52 44 41 40 37 33 21 13 4 11 9 11 9 2 0 1 -2 3 6 6 5 9 15 16 15 13 13 16 19 22 22 27 30 34 30 29 51 50 52 54 56 57 57
52 51 50 44 34 33 36 25 12 10 11 7 7 8 11 8 -0 -3 -1 -3 -6 -4 -4 5 8 11 16 12 11 11 17 15 16 17 18 22 29 28 49 52 53 55 55 57 58
51 51 48 45 45 40 28 19 13 12 11 12 13 8 12 11 7 4 1 -2 -0 1 3 -3 2 12 14 14 11 10 12 16 14 17 16 34 33 43 49 54 54 55 55 55 57
51 41 38 36 42 36 22 17 15 17 16 14 12 9 12 12 12 10 6 2 -0 -5 -7 3 9 15 13 13 12 10 13 14 15 19 20 38 40 41 47 54 54 54 54 55 55
46 40 38 39 36 27 21 22 17 18 17 15 12 11 9 9 9 9 11 16 17 16 8 -0 2 9 13 14 13 10 12 16 16 13 14 32 40 39 46 49 54 55 53 54 55
41 37 37 34 27 22 18 18 18 18 17 10 10 7 8 9 9 8 14 17 17 17 25 17 1 0 7 13 13 13 9 19 13 17 14 27 37 41 43 47 48 50 49 50 55
37 32 35 29 25 25 19 20 26 19 21 15 14 13 11 10 9 9 14 14 15 22 21 28 19 1 -0 8 12 12 10 9 9 11 21 21 22 41 42 43 45 45 46 48 49
36 37 38 27 21 21 22 20 21 22 21 19 16 16 17 16 14 13 12 14 26 32 37 32 19 20 13 12 14 9 10 11 14 16 11 19 23 40 44 46 46 45 49 52 48
36 34 32 28 27 25 22 22 20 21 21 21 16 15 15 15 17 15 25 25 27 32 45 32 20 23 15 15 25 25 24 23 14 16 14 21 21 41 42 43 46 50 52 52 53
39 36 33 30 30 29 29 23 20 17 18 22 21 27 25 16 24 26 27 27 26 34 27 29 26 29 29 29 29 25 24 24 21 12 13 14 21 34 42 50 55 57 56 52 50
35 35 35 32 31 28 29 23 22 19 23 27 27 30 26 25 26 23 24 25 26 25 25 28 26 29 28 30 28 25 25 26 25 19 17 17 29 45 46 52 55 59 58 59 56
40 40 36 34 31 29 27 28 28 28 27 24 27 28 24 24 26 25 23 24 25 24 23 27 25 25 26 30 29 23 25 25 25 29 18 14 27 48 46 50 55 57 59 58 58

GFSSW_sfc_dewp_207.txt.gz
Dewpoint
53 53 53 54 55 55 55 55 55 55 56 56 58 58 59 59 59 53 32 48 69 74 73 70 62 60 63 63 65 63 56 53 55 54 54 59 59 61 61 60 60 60 61 63 65
53 53 53 53 54 55 55 56 56 55 55 56 57 58 59 60 53 37 51 70 73 73 62 61 59 58 60 59 61 57 50 49 55 55 54 56 60 59 59 59 59 59 62 64 66
53 52 53 53 53 54 55 55 55 56 55 55 56 58 59 59 35 28 72 73 72 73 61 57 57 57 55 56 59 55 49 50 52 56 56 58 59 60 58 57 59 59 62 65 66
52 52 52 52 53 53 54 54 55 55 55 55 56 57 59 52 22 46 72 74 72 69 57 53 52 50 43 38 54 47 51 49 49 55 57 59 59 57 58 59 60 61 63 65 65
52 52 52 52 53 53 53 53 54 55 54 55 55 57 46 20 18 58 72 74 69 61 55 51 48 42 33 25 34 42 45 47 48 57 57 58 57 57 58 59 59 61 63 64 64
52 52 53 53 53 54 54 54 54 54 54 54 55 58 43 -1 11 59 59 60 54 54 46 49 42 40 31 27 31 31 44 46 53 54 56 55 57 58 59 59 59 61 63 64 63
52 53 53 53 53 54 54 54 54 54 54 54 55 54 42 3 33 21 11 48 50 50 43 44 42 35 29 27 26 30 41 46 51 54 55 57 56 57 59 59 59 61 62 63 63
52 53 53 54 54 53 53 53 54 55 55 55 56 51 17 19 27 30 14 10 17 21 40 41 39 32 28 28 24 40 45 42 49 51 53 51 50 58 59 58 60 61 61 61 61
53 54 53 53 53 52 52 52 54 57 57 57 47 39 5 34 29 25 12 5 16 21 33 33 30 25 24 22 22 35 37 40 47 50 49 50 50 59 59 58 59 60 60 59 59
53 53 53 53 52 52 51 53 52 54 54 52 44 30 16 17 24 21 17 9 6 19 23 25 25 23 23 22 20 23 38 41 43 45 48 47 46 58 58 58 57 59 60 59 58
54 53 53 53 52 50 50 25 17 15 17 17 34 26 25 24 22 19 16 16 19 21 18 25 20 20 21 23 23 25 28 33 44 47 46 43 45 57 58 57 56 57 58 58 58
53 53 53 52 51 51 44 19 22 19 15 15 16 16 19 19 16 14 12 13 14 14 18 17 18 21 23 24 23 25 31 37 45 44 43 44 44 45 57 57 56 56 57 57 57
54 53 53 52 51 40 36 29 31 28 16 15 16 15 12 15 11 12 8 14 15 14 14 16 17 19 21 20 21 24 35 37 39 43 44 48 43 45 53 57 57 56 57 57 56
54 53 52 52 33 39 35 35 32 22 10 5 14 15 13 11 7 9 6 9 18 13 13 13 14 15 16 16 18 17 30 36 40 39 33 44 32 43 48 51 56 57 57 57 56
54 53 52 51 41 35 32 33 33 17 -10 7 9 11 7 -3 -6 -1 4 10 9 14 15 13 13 13 13 14 18 17 21 32 35 39 37 36 38 37 48 49 53 56 57 57 57
54 53 52 45 42 40 38 36 19 10 -0 9 10 9 9 10 4 -1 -2 4 7 9 10 13 15 14 12 13 16 17 20 23 25 38 36 32 37 32 47 48 50 54 57 57 57
53 52 50 46 33 37 36 21 8 9 9 11 11 12 9 12 9 7 -3 -5 -2 -2 0 2 2 6 13 17 17 14 14 12 16 17 21 24 34 34 33 40 48 54 55 57 57
51 51 48 46 45 40 25 16 13 11 13 15 14 10 12 11 11 11 -1 -4 -1 -2 -3 -4 4 6 13 10 13 11 12 14 11 14 17 24 23 24 41 50 51 53 55 57 57
50 43 40 38 43 36 20 12 7 17 16 16 12 9 9 9 10 9 12 14 16 2 -5 1 0 9 9 14 14 14 10 11 9 15 17 22 36 41 48 53 53 53 54 56 57
43 40 38 39 39 25 18 21 17 18 17 15 12 9 7 8 7 7 13 15 17 19 19 9 -4 7 10 13 14 11 13 13 15 9 15 18 38 36 42 51 54 54 54 55 57
39 33 33 39 26 21 17 18 19 19 19 15 10 9 10 9 9 6 9 14 24 28 25 26 -1 -3 7 11 10 12 10 12 15 16 12 15 30 41 39 49 54 54 54 55 56
37 29 33 29 24 24 19 19 26 18 22 17 14 15 13 15 11 7 11 13 29 33 33 30 16 1 -3 7 14 13 11 11 11 10 17 17 15 28 41 46 54 54 54 55 55
33 36 39 27 22 21 22 21 21 21 21 20 16 17 18 16 14 23 26 26 28 30 33 37 22 20 19 9 12 8 10 10 13 12 10 14 19 30 43 43 47 53 55 53 52
36 33 33 31 28 27 27 24 21 21 21 21 19 22 18 14 20 24 26 27 27 32 41 30 24 24 17 19 25 25 26 22 14 15 13 14 11 19 40 43 46 47 48 49 49
38 35 34 30 30 30 28 25 22 19 17 27 24 26 22 24 25 25 25 25 26 32 26 30 27 27 26 27 29 27 26 25 19 18 14 15 19 19 38 43 45 51 48 49 52
34 35 36 33 32 29 29 26 25 27 26 23 26 28 26 25 24 23 23 23 23 24 24 25 24 26 24 30 30 29 27 27 25 26 18 16 18 23 33 51 54 56 57 56 53
40 39 35 34 31 29 30 31 32 31 26 23 27 26 23 24 24 24 24 24 23 24 23 24 23 23 21 26 28 24 26 27 28 47 47 25 22 41 48 52 55 57 57 55 53